This demonstration page uses our WeatherBlox Daily Observations layout. Learn more.

Left ArrowRight Arrow

39.12711, -84.51439

Hourly Observations for June 29, 2021

Temp ( °F °C ) Dew Point ( °F °C ) Humidity (%) Winds ( mph kmh ) Pressure ( in mb ) Visibility ( mi km ) Precip ( " mm )
12:53 am 00:53 Clear 74 23.3 72 22.2 94 94 N N/A 30.20 1023 10 16 N/A
1:53 am 01:53 Clear 75 23.9 73 22.8 94 94 N N/A 30.19 1022 10 16 N/A
2:53 am 02:53 Clear 73 22.8 72 22.2 96 96 N N/A 30.19 1022 10 16 N/A
3:53 am 03:53 Clear 72 22.2 70 21.1 94 94 N N/A 30.18 1022 9 14 N/A
4:53 am 04:53 Clear 72 22.2 71 21.7 97 97 N N/A 30.18 1022 9 14 N/A
5:13 am 05:13 Clear with Mist and Fog 71 21.7 70 21.1 96 96 N N/A 30.19 1022 2 3 N/A
5:21 am 05:21 Clear with Mist and Fog 72 22.2 71 21.7 97 97 N N/A 30.18 1022 3 5 N/A
5:46 am 05:46 Clear with Mist and Fog 71 21.7 70 21.1 96 96 E 3 6 30.20 1023 2 2 N/A
5:53 am 05:53 Clear with Mist and Fog 71 21.7 70 21.1 96 96 N N/A 30.19 1022 2 2 N/A
5:56 am 05:56 Clear with Mist and Fog 71 21.7 70 21.1 96 96 N N/A 30.20 1023 4 6 N/A
6:05 am 06:05 Clear with Mist and Fog 71 21.7 70 21.1 96 96 N N/A 30.20 1023 1 2 N/A
6:07 am 06:07 Mostly Cloudy with Fog 71 21.7 70 21.1 96 96 N N/A 30.20 1023 1 1 N/A
6:16 am 06:16 Mostly Cloudy with Fog 70 21.1 69 20.6 97 97 N N/A 30.21 1023 0 0 N/A
6:25 am 06:25 Mostly Cloudy with Fog 70 21.1 69 20.6 97 97 N N/A 30.21 1023 1 1 N/A
6:40 am 06:40 Partly Cloudy with Mist and Fog 71 21.7 70 21.1 96 96 N N/A 30.21 1023 3 4 N/A
6:53 am 06:53 Sunny with Mist and Fog 72 22.2 70 21.1 94 94 N N/A 30.21 1023 4 6 N/A
7:53 am 07:53 Sunny 75 23.9 73 22.8 94 94 N N/A 30.21 1023 10 16 N/A
8:53 am 08:53 Sunny 80 26.7 74 23.3 82 82 N N/A 30.20 1023 10 16 N/A
9:53 am 09:53 Sunny 86 30 74 23.3 67 67 N N/A 30.21 1023 10 16 N/A
10:53 am 10:53 Sunny 88 31.1 73 22.8 61 61 N N/A 30.19 1022 10 16 N/A
11:53 am 11:53 Sunny 89 31.7 72 22.2 57 57 SSW 3 6 30.19 1022 10 16 N/A
12:53 pm 12:53 Mostly Sunny 90 32.2 73 22.8 58 58 SSW 6 9 30.18 1022 10 16 N/A
1:53 pm 13:53 Partly Cloudy 91 32.8 72 22.2 54 54 SSW 8 13 30.16 1021 10 16 N/A
2:53 pm 14:53 Partly Cloudy 92 33.3 72 22.2 52 52 SW 6 9 30.13 1020 10 16 N/A
3:53 pm 15:53 Mostly Sunny 92 33.3 72 22.2 52 52 S 7 11 30.11 1020 10 16 N/A
4:53 pm 16:53 Mostly Sunny 93 33.9 72 22.2 50 50 VRB 3 6 30.09 1019 10 16 N/A
5:53 pm 17:53 Mostly Sunny 90 32.2 73 22.8 58 58 SSE 9 15 30.09 1019 10 16 N/A
6:27 pm 18:27 Partly Cloudy with Thunderstorms 88 31.1 72 22.2 59 59 SSE 7 11 30.07 1018 10 16 N/A
6:53 pm 18:53 Partly Cloudy with Thunderstorms 84 28.9 74 23.3 72 72 SW 7 11 30.12 1020 10 16 N/A
7:15 pm 19:15 Partly Cloudy with Nearby Thunderstorms 83 28.3 70 21.1 65 65 WNW 13 20 30.11 1020 10 16 N/A
7:28 pm 19:28 Partly Cloudy 82 27.8 69 20.6 65 65 NW 9 15 30.11 1020 10 16 N/A
7:53 pm 19:53 Partly Cloudy 81 27.2 68 20 65 65 E 6 9 30.13 1020 10 16 N/A
8:53 pm 20:53 Partly Cloudy 81 27.2 69 20.6 67 67 N N/A 30.14 1021 10 16 N/A
9:53 pm 21:53 Clear 78 25.6 70 21.1 76 76 E 5 7 30.14 1021 10 16 N/A
10:53 pm 22:53 Clear 78 25.6 71 21.7 79 79 N N/A 30.15 1021 10 16 N/A
11:53 pm 23:53 Partly Cloudy 76 24.4 71 21.7 85 85 N N/A 30.15 1021 10 16 N/A

Powered by AerisWeather